Погода в Шалимове

Россия / Вологодская область     58°57′50″N   38°37′03″E
темп.,
°C
ветер,
м/с
пор.,
м/с
влажн.,
%
обл.,
%
осадки,
мм/ч
давл.,
гПа
погр.,
м
16 июня, ср
ср1600:00+13ссз2278100 0.0 100936
03:00+13зсз2685100 0.0 1010171
06:00+14сз387599 0.1 1011404
09:00+18сз46470 0.1 10121207
12:00+20сз57355 0.0 10132283
15:00+21сз58305 0.0 10132671
18:00+20сз573627 0.0 10142123
21:00+13сз22575 0.0 101643
17 июня, чт
чт1700:00+10зсз2105999 0.0 1018228
03:00+10зсз3105491 0.0 1020283
06:00+11зсз27555 0.0 1021254
09:00+17зсз36385 0.0 1022944
12:00+21сз48386 0.0 10222176
15:00+23зсз473211 0.0 10212390
18:00+22зсз36410 0.0 10222004
21:00+16з22660 0.0 102319
18 июня, пт
пт1800:00+12зсз11695 0.0 102510
03:00+12з11746 0.0 102510
06:00+16зюз136419 0.0 102697
09:00+21юз3445100 0.0 1025585
12:00+24юз464151 0.0 10251292
15:00+25юз4640100 0.0 10241048
18:00+23ююз36535 0.0 1022344
21:00+19ююз377425 0.0 1022117
19 июня, сб
сб1900:00+17юз38805 0.0 1023149
03:00+15юз39825 0.0 1023158
06:00+18зюз311745 0.0 1023358
09:00+24з48535 0.0 1023860
12:00+28з57365 0.0 10222076
15:00+29з47325 0.0 10212425
18:00+28зсз254310 0.0 1021934
21:00+21юз116832 0.0 102211
20 июня, вс
вс2000:00+19юз116751 0.0 102211
03:00+18з11669 0.0 102311
06:00+20зюз24685 0.0 1023116
09:00+26зюз3453100 0.0 1022570
12:00+28юз4643100 0.0 10221777
15:00+29юз474062 0.0 10201757
18:00+27ююз475125 0.0 1020491
21:00+21ююз237161 0.0 101949